Volver al catálogo

TJS-25

ActivoCienciaGEO
NORAD 69474·PAYLOAD·🇨🇳 China

Lanzado Jun 11, 2026 desde Wenchang Space Launch Site

Loading…

TLE

ActualizadoSource: Space-Track

Época: Sep 14, 2026, 14:22 UTC

1 69474U 26129A   26257.59893444 -.00000378  00000-0  00000-0 0  9997
2 69474   5.8830 330.6055 0004170 278.5562  80.2414  1.00275550   953

Sigue TJS-25 en tiempo real con AllMySat

Download on the App Store